• Join FlightAware (Why Join?)
  • Login
  • US Flag 
02:43AM EDT


 

Airport Tracker/Info


-or-


 

Live Flight TrackerFlight Track Log ✈ UAL6044 ✈ 19-Apr-2013 ✈ KIAD - KIND

Flight Track Log - Related Links

Times and Time Zones

All times are in EDT time to prevent confusion due to time zone crossing. See the UAL6044 flight status page for this flight to view local times or setup timezone preferences in your user account.

Time Position Orientation Groundspeed Altitude Reporting Facility
EDT Latitude Longitude Course Direction KTS MPH feet Rate Location/Type
02:09PM 38.9500 -77.5167 288° West 179 206 1,800  Level Potomac TRACON
02:10PM 38.9333 -77.5833 252° West 204 235 4,300 2,700 Climbing Potomac TRACON
02:11PM 38.9167 -77.6667 256° West 206 237 7,200 2,760 Climbing Potomac TRACON
02:11PM 38.9094 -77.7097 258° West 228 262 8,900 2,400 Climbing Washington Center
02:12PM 38.8715 -77.8828 260° West  Level FlightAware Approximate
02:12PM 38.9164 -77.7794 277° West 233 268 11,200  Level Washington Center
02:13PM 38.8891 -77.9899 288° West  Level FlightAware Approximate
02:13PM 38.9250 -77.8811 276° West 251 289 12,700  Level Washington Center
02:14PM 38.9161 -78.0977 288° West  Level FlightAware Approximate
02:14PM 38.9375 -77.9881 279° West 280 322 13,700  Level Washington Center
02:15PM 38.9478 -78.1033 277° West 310 357 15,200 1,320 Climbing Washington Center
02:16PM 38.9539 -78.1994 275° West 331 381 16,400 1,800 Climbing Washington Center
02:17PM 38.9653 -78.3442 276° West 347 399 18,800 1,920 Climbing Washington Center
02:18PM 38.9750 -78.4647 276° West 347 399 20,300 1,080 Climbing Washington Center
02:19PM 38.9825 -78.5878 275° West 352 405 21,000 1,080 Climbing Washington Center
02:20PM 38.9917 -78.7189 275° West 357 411 22,500 1,800 Climbing Washington Center
02:21PM 39.0008 -78.8422 276° West 357 411 24,600 1,800 Climbing Washington Center
02:22PM 39.0103 -78.9575 276° West 346 398 26,100 1,500 Climbing Washington Center
02:23PM 39.0172 -79.0756 274° West 346 398 27,600 1,560 Climbing Washington Center
02:24PM 39.0242 -79.1933 274° West 341 392 29,300 1,200 Climbing Washington Center
02:25PM 39.0311 -79.3114 274° West 336 387 30,000 300 Climbing Washington Center
02:26PM 39.0414 -79.4428 276° West 344 396 30,000 180 Level Washington Center
02:27PM 39.0494 -79.5822 274° West 370 426 30,400 900 Climbing Washington Center
02:28PM 39.0594 -79.7164 276° West 383 441 31,900 780 Climbing Washington Center
02:29PM 39.0669 -79.8586 274° West 389 448 32,000  Climbing Washington Center
02:30PM 39.0742 -80.0089 274° West 402 463 32,000  Level Washington Center
02:32PM 39.0819 -80.1897 273° West 410 472 32,000  Level Indianapolis Center
02:33PM 39.0892 -80.3336 274° West 405 466 32,000  Level Indianapolis Center
02:34PM 39.0975 -80.4794 274° West 409 471 32,000  Level Indianapolis Center
02:35PM 39.1142 -80.6192 279° West 400 460 32,000  Level Indianapolis Center
02:36PM 39.1592 -80.7928 289° West 423 487 32,000  Level Indianapolis Center
02:37PM 39.1969 -80.9364 289° West 426 490 32,000  Level Indianapolis Center
02:38PM 39.2336 -81.0819 288° West 429 494 32,000  Level Indianapolis Center
02:39PM 39.2706 -81.2231 289° West 420 483 32,000  Level Indianapolis Center
02:40PM 39.3056 -81.3611 288° West 409 471 32,000  Level Indianapolis Center
02:41PM 39.3389 -81.4972 288° West 401 461 32,000  Level Indianapolis Center
02:42PM 39.3728 -81.6289 288° West 389 448 32,000 -660 Level Indianapolis Center
02:43PM 39.4097 -81.7842 287° West 380 437 30,700 -1,020 Descending Indianapolis Center
02:44PM 39.4400 -81.9047 288° West 358 412 30,000 -360 Descending Indianapolis Center
02:45PM 39.4700 -82.0239 288° West 350 403 30,000  Level Indianapolis Center
02:46PM 39.5028 -82.1586 288° West 361 415 30,000  Level Indianapolis Center
02:47PM 39.5328 -82.2828 287° West 360 414 30,000  Level Indianapolis Center
02:48PM 39.5625 -82.4064 287° West 357 411 30,000  Level Indianapolis Center
02:49PM 39.5919 -82.5306 287° West 358 412 30,000  Level Indianapolis Center
02:50PM 39.6222 -82.6533 288° West 356 410 30,000  Level Indianapolis Center
02:51PM 39.6511 -82.7769 287° West 355 409 30,000  Level Indianapolis Center
02:52PM 39.6800 -82.8994 287° West 353 406 30,000  Level Indianapolis Center
02:53PM 39.7142 -83.0439 287° West 355 409 30,000  Level Indianapolis Center
02:54PM 39.7439 -83.1692 287° West 357 411 30,000  Level Indianapolis Center
02:55PM 39.7733 -83.2961 287° West 362 417 30,000  Level Indianapolis Center
02:57PM 39.7978 -83.4042 286° West 360 414 30,000  Level Indianapolis Center
02:58PM 39.8339 -83.5553 287° West 362 417 30,000  Level Indianapolis Center
02:59PM 39.8625 -83.6856 286° West 366 421 30,000  Level Indianapolis Center
03:00PM 39.8917 -83.8133 287° West 366 421 30,000 -540 Level Indianapolis Center
03:01PM 39.9217 -83.9456 287° West 378 435 29,000 -1,320 Descending Indianapolis Center
03:02PM 39.9531 -84.0858 286° West 399 459 27,400 -1,440 Descending Indianapolis Center
03:03PM 39.9831 -84.2217 286° West 389 448 26,100 -720 Descending Indianapolis Center
03:04PM 40.0119 -84.3489 287° West 365 420 26,000 -600 Descending Indianapolis Center
03:05PM 40.0408 -84.4756 287° West 361 415 24,900 -1,080 Descending Indianapolis Center
03:06PM 40.0656 -84.5964 285° West 345 397 23,800 -1,260 Descending Indianapolis Center
03:07PM 40.0711 -84.7164 274° West 327 376 22,400 -1,740 Descending Indianapolis Center
03:08PM 40.0747 -84.8594 272° West 335 386 20,300 -1,200 Descending Indianapolis Center
03:09PM 40.0786 -84.9800 272° West 331 381 20,000 -1,140 Descending Indianapolis Center
03:10PM 40.0828 -85.1000 273° West 329 379 18,000 -2,100 Descending Indianapolis Center
03:11PM 40.0861 -85.2258 272° West 339 390 15,700 -2,040 Descending Indianapolis Center
03:12PM 40.0903 -85.3528 272° West 346 398 13,900 -1,620 Descending Indianapolis Center
03:13PM 40.0922 -85.4717 271° West 332 382 12,400 -1,440 Descending Indianapolis Center
03:14PM 40.0967 -85.5883 273° West 323 372 11,000 -1,020 Descending Indianapolis Center
03:15PM 40.0872 -85.6831 263° West 280 322 10,400 -900 Descending Indianapolis Center
03:16PM 40.0625 -85.7608 247° West 245 282 9,200 -900 Descending Indianapolis Center
03:17PM 40.0378 -85.8383 247° West 235 270 8,600 -1,380 Descending Indianapolis Center
03:19PM 39.9500 -86.0000 235° Southwest 222 255 4,700 -1,380 Descending Indianapolis TRACON
03:20PM 39.9000 -86.0500 218° Southwest 222 255 4,100 -420 Descending Indianapolis TRACON
03:21PM 39.8667 -86.1000 229° Southwest 203 234 4,000 -240 Descending Indianapolis TRACON
03:22PM 39.8167 -86.1500 218° Southwest 211 243 3,700 -300 Descending Indianapolis TRACON